User: anonymous   Login
Location: ??????
(55.6130°N, 37.7882°E)
Time: 19:53:31
(UTC+00:00)
Language:

COBE Rocket - Orbit

View from above orbital plane
View from above orbital plane
View from above satellite
View from above satellite

Ground track
Ground track

The orbit data is extracted from the following two-line orbital elements,

1 20323U 89089B   24171.82533418  .00000491  00000-0  13352-3 0  9994
2 20323  97.1166 106.1175 0068990 304.7569  54.7146 14.49546604804731
Epoch (UTC): 19 June 2024 19:48:28
Eccentricity: 0.0068990
inclination: 97.1166°
perigee height: 678 km
apogee height: 776 km
right ascension of ascending node: 106.1175°
argument of perigee: 304.7569°
revolutions per day: 14.49546604
mean anomaly at epoch: 54.7146°
orbit number at epoch: 80473

The dashed part of the orbit path shows where the satellite is in the earth's shadow,  

DLR